CZ-6A DEB, 58431

Orbit data source: Space-Track

CZ-6A DEB, 58431 is space debris in SSO originally from a launch on Fri, 11 Nov 2022 UTC launched from the Taiyaun Space Center, China (TSC). Debris objects in space refer to the collection of defunct objects orbiting the Earth. Examples of debris include non-operational satellites, rocket bodies, and fragments generated from explosions, collisions, or faulty payload assembly.

Loading next visibility...
Identifier
58431, 2022-151AHZ
Orbit
SSO
Country
Flag of CNCN / PRC
Related business
Manufacturer
SAST
Mission
Spacecraft
Bus & Motor
Unknown
Mass
Unknown
Launch date (UTC)
2022-11-11 (3 years ago)
Launch vehicle
Unknown
Launch site
Taiyaun Space Center, China (TSC)
Object type
Payload
Rocket body
Debris
Shape & HBR
Unknown shape, 0.1 m
Radar Cross Section
Small (<0.1 m²)

Expand to show TLE details & history
Last TLE update: 6 days ago

TLE from 6 days ago
0 CZ-6A DEB
1 58431U 22151AHZ 25345.96676067  .00007067  00000-0  31981-2 0  9992
2 58431  98.8375 351.8156 0051585 140.5839 219.9109 14.21583036140151
Epoch: 2025-12-11T23:12Z
TLE epoch observation values (Epoch: 2025-12-11T23:12:08.121Z)
Latitude
-0.00006°
Longitude
-77.13338°
Altitude
851.482 km
Speed
7.412 km/s
True Right ascension
23h 27m 15s
True Declination
0° 00' 00"
Sunlit
Object was in daylight at epoch
Visualization orbit readout
Latitude
Unknown
Longitude
Unknown
Altitude
Unknown
Speed
Unknown
Apparent Right ascension
Unknown
Apparent Declination
Unknown
Sunlit
N/A
Visualization observer readout
Local Sidereal Time
02:13:09
Azimuth
Unknown
Elevation
Unknown
Doppler factor
Unknown
Orbital elements
Apogee altitude
854.284 km
Perigee altitude
780.05 km
Semi-major axis
7,195.304 km
Eccentricity
0.00516
Inclination
98.8375°
RAAN
351.8156°
Arg. of periapsis
140.5839°
True anomaly
219.53351°
Mean anomaly
219.9109°
Eccentric anomaly
219.72202°
Mean motion
3.55606 °/min
Orbital period
101.24 mins
BSTAR
0.0031981
Loading maneuver chart data...
Computing Atmospheric mass density...
Loading historical data...
Loading historical data...
Loading historical data...
Loading historical data...
Loading historical data...
Loading historical data...
Loading historical data...

Documentation

Showing up to 5 results
|